Regional Weather Roundup
Issued by NWS

Home | Current Version | Previous Version | Text Only | Print | Product List | Glossary On
Versions: 1 2 3 4 5 6 7 8 9 10 11 12 13 14 15 16 17 18 19 20 21 22 23 24 25 26 27 28 29 30 31 32 33 34 35 36 37 38 39 40 41 42 43 44 45 46 47 48 49 50
000
ASUS43 KBIS 010310
RWRND

NORTH DAKOTA REGIONAL WEATHER ROUNDUP
NATIONAL WEATHER SERVICE BISMARCK ND
1000 PM CDT SAT APR 30 2016

NOTE: "FAIR" INDICATES FEW OR NO CLOUDS BELOW 12,000 FEET WITH NO
SIGNIFICANT WEATHER AND/OR OBSTRUCTIONS TO VISIBILITY.


NDZ001>003-009>011-017-010400-
NORTHWEST NORTH DAKOTA

CITY           SKY/WX    TMP DP  RH WIND       PRES   REMARKS
WILLISTON      CLEAR     49  30  48 N6        30.29R
MINOT          CLEAR     50  26  39 NE6       30.27R
MINOT AFB      CLEAR     52  28  40 E7        30.27R
$$

NDZ018>021-031>035-040>046-010400-
SOUTHWEST NORTH DAKOTA

CITY           SKY/WX    TMP DP  RH WIND       PRES   REMARKS
BISMARCK       CLEAR     49  30  48 NE8       30.25R
DICKINSON      CLEAR     43  27  53 NE7       30.25R
GARRISON         N/A     45  29  53 N6        30.26R
HETTINGER ARPT CLOUDY    41  27  57 NE6       30.25R
$$

NDZ004>008-012>016-024-026-027-054-010400-
NORTHEAST NORTH DAKOTA

CITY           SKY/WX    TMP DP  RH WIND       PRES   REMARKS
GRAND FORKS    PTCLDY    51  29  42 NE12      30.25R
GRND FRKS AFB  CLEAR     49  27  43 E10       30.25R
DEVILS LAKE    CLEAR     48  30  49 NE8       30.26R
$$

NDZ022-023-025-028>030-036>039-047>053-010400-
SOUTHEAST NORTH DAKOTA

CITY           SKY/WX    TMP DP  RH WIND       PRES   REMARKS
FARGO          CLOUDY    53  28  38 NE14      30.19R
JAMESTOWN      CLOUDY    48  27  44 NE13      30.21R
$$





USA.gov is the U.S. government's official web portal to all federal, state and local government web resources and services.